Weather in Volkovo

Russia / Yaroslavl Oblast     58°10′25″N   38°50′15″E
temp.,
°C
wind,
m/s
gust,
m/s
humid.,
%
clouds,
%
prec.,
mm/h
press.,
hPa
HPBL,
m
13 april, tue
tue1300:00+6se51091100 0.0 1029192
03:00+5se5996100 0.0 1028145
06:00+4se489887 0.0 1027116
09:00+6se4794100 0.0 1026131
12:00+10sse5978100 0.0 1024265
15:00+11s5970100 0.0 1023357
18:00+10s4675100 0.0 102274
21:00+8sse488294 0.0 102385
14 april, wed
wed1400:00+7sse488391 0.0 102286
03:00+6sse48834 0.0 102186
06:00+6sse498345 0.0 1021102
09:00+8s487846 0.0 1020132
12:00+10s4867100 0.0 1020267
15:00+11s4864100 0.0 1019452
18:00+10s4570100 0.0 101859
21:00+8s4477100 0.0 101936
15 april, thu
thu1500:00+4nw118794 0.0 101910
03:00+4n229689 0.0 101911
06:00+4nne34100100 0.0 102060
09:00+5nne4697100 0.1 1021151
12:00+5nne5993100 0.0 1022201
15:00+5ne5988100 0.0 1023217
18:00+4ne498993 0.0 1023198
21:00
16 april, fri
fri1600:00+3ne498763 0.0 1024204
03:00+2ne499232 0.0 1025192
06:00+1ne510825 0.0 1025210
09:00+3ne59682 0.0 1026256
12:00+5ne48562 0.0 1026354
15:00+6nne48535 0.0 1027428
18:00+6ne486046 0.0 1027349
21:00+3ne477250 0.0 102989
17 april, sat
sat1700:00+2ne4777100 0.0 1029112
03:00+1ne477876 0.0 103091
06:000ne487842 0.0 1031112
09:00+3ne47703 0.0 1032222
12:00+5nne47655 0.0 1032441
15:00+5n47645 0.0 1032505
18:00+5nne37685 0.0 1032445
21:00+3nne34765 0.0 103349